Weather History for Point Pleasant, WV

Change the Weather History Date:

Monday, November 5, 2012

  Actual Average (KHTS) Record (KHTS)
Temperature  
Mean Temperature 40 °F 51 °F  
Max Temperature 50 °F 61 °F 85 °F (1948)
Min Temperature 30 °F 40 °F 14 °F (1991)
Degree Days  
Heating Degree Days 25 15  
Month to date heating degree days 70  
Since 1 July heating degree days 409  
Cooling Degree Days 0 0  
Month to date cooling degree days 0  
Year to date cooling degree days 1132  
Moisture  
Dew Point 29 °F    
Average Humidity 74    
Maximum Humidity 100    
Minimum Humidity 40    
Precipitation  
Precipitation 0.00 in 0.11 in 1.71 in (2003)
Month to date precipitation 0.56  
Year to date precipitation 36.40  
Snow  
Snow 0.00 in - - ()
Month to date snowfall  
Since 1 September snowfall  
Snow Depth -    
Sea Level Pressure  
Sea Level Pressure 30.15 in    
Wind  
Wind Speed 0 mph (NE)    
Max Wind Speed 5 mph    
Max Gust Speed -    
Visibility 10 miles    
Events      
T = Trace of Precipitation, MM = Missing Value Source: NWS Daily Summary

Daily Weather History Graph

Daily Weather History Graph

Search for Another Location

Airport:

Trip Planner

Search our weather history database for the weather conditions in past years. The results will help you decide how hot, cold, wet, or windy it might be!

Date:

Astronomy

Nov. 05, 2012 Rise Set
Actual Time 7:00 AM EST 5:22 PM EST
Civil Twilight 6:32 AM EST 5:50 PM EST
Nautical Twilight 6:00 AM EST 6:22 PM EST
Astronomical Twilight 5:29 AM EST 6:53 PM EST
Moon 10:59 PM EST (11/5) 12:19 PM EST (11/5)
Length of Visible Light 11h 18m
Length of Day
10h 22m
Waning Gibbous, 63% of the Moon is Illuminated
Nov 5
Waning Gibbous
Nov 6
Last Quarter
Nov 13
New
Nov 20
First Quarter
Nov 28
Full

Hourly Weather History & Observations

Time (EST) Temp. Windchill Dew Point Humidity Pressure Visibility Wind Dir Wind Speed Gust Speed Precip Events Conditions
12:15 AM 32.0 °F - 28.4 °F 87% 30.15 in 10.0 mi Calm Calm - N/A   Scattered Clouds
12:35 AM 32.0 °F - 28.4 °F 87% 30.15 in 10.0 mi Calm Calm - N/A   Overcast
12:55 AM 32.0 °F - 28.4 °F 87% 30.15 in 10.0 mi Calm Calm - N/A   Overcast
1:15 AM 32.0 °F - 30.2 °F 93% 30.15 in 10.0 mi Calm Calm - N/A   Overcast
1:35 AM 32.0 °F - 30.2 °F 93% 30.15 in 10.0 mi Calm Calm - N/A   Overcast
1:55 AM 32.0 °F - 30.2 °F 93% 30.15 in 10.0 mi Calm Calm - N/A   Overcast
2:15 AM 32.0 °F - 30.2 °F 93% 30.16 in 10.0 mi Calm Calm - N/A   Overcast
2:35 AM 32.0 °F - 30.2 °F 93% 30.16 in 10.0 mi Calm Calm - N/A   Overcast
2:55 AM 33.8 °F - 32.0 °F 93% 30.15 in 10.0 mi Calm Calm - N/A   Overcast
3:15 AM 33.8 °F - 32.0 °F 93% 30.15 in 10.0 mi Calm Calm - N/A   Overcast
3:35 AM 33.8 °F - 32.0 °F 93% 30.15 in 10.0 mi Calm Calm - N/A   Overcast
3:55 AM 33.8 °F - 32.0 °F 93% 30.16 in 10.0 mi Calm Calm - N/A   Overcast
4:15 AM 33.8 °F - 32.0 °F 93% 30.16 in 10.0 mi Calm Calm - N/A   Overcast
4:35 AM 33.8 °F - 32.0 °F 93% 30.17 in 10.0 mi Calm Calm - N/A   Overcast
4:55 AM 33.8 °F - 32.0 °F 93% 30.17 in 10.0 mi Calm Calm - N/A   Overcast
5:15 AM 32.0 °F - 32.0 °F 100% 30.17 in 10.0 mi Calm Calm - N/A   Scattered Clouds
5:35 AM 32.0 °F - 30.2 °F 93% 30.17 in 10.0 mi Calm Calm - N/A   Scattered Clouds
5:55 AM 30.2 °F - 28.4 °F 93% 30.17 in 10.0 mi Calm Calm - N/A   Scattered Clouds
6:15 AM 32.0 °F - 30.2 °F 93% 30.17 in 10.0 mi Calm Calm - N/A   Overcast
6:35 AM 32.0 °F - 30.2 °F 93% 30.17 in 10.0 mi Calm Calm - N/A   Overcast
7:15 AM 30.2 °F - 28.4 °F 93% 30.18 in 7.0 mi Calm Calm - N/A   Scattered Clouds
7:35 AM 30.2 °F - 30.2 °F 100% 30.19 in 10.0 mi Calm Calm - N/A   Mostly Cloudy
7:55 AM 32.0 °F - 32.0 °F 100% 30.19 in 10.0 mi Calm Calm - N/A   Overcast
8:15 AM 33.8 °F - 32.0 °F 93% 30.20 in 10.0 mi Calm Calm - N/A   Overcast
8:35 AM 33.8 °F - 32.0 °F 93% 30.20 in 10.0 mi Calm Calm - N/A   Overcast
8:55 AM 35.6 °F - 32.0 °F 87% 30.20 in 10.0 mi Calm Calm - N/A   Overcast
9:15 AM 35.6 °F - 32.0 °F 87% 30.20 in 10.0 mi Calm Calm - N/A   Overcast
9:35 AM 37.4 °F - 30.2 °F 75% 30.19 in 10.0 mi Calm Calm - N/A   Overcast
9:55 AM 41.0 °F - 30.2 °F 65% 30.19 in 10.0 mi Calm Calm - N/A   Scattered Clouds
10:15 AM 42.8 °F - 30.2 °F 61% 30.19 in 10.0 mi Calm Calm - N/A   Scattered Clouds
10:35 AM 42.8 °F - 26.6 °F 53% 30.20 in 10.0 mi Calm Calm - N/A   Mostly Cloudy
10:55 AM 42.8 °F - 28.4 °F 57% 30.20 in 10.0 mi Calm Calm - N/A   Overcast
11:15 AM 42.8 °F - 26.6 °F 53% 30.20 in 10.0 mi Calm Calm - N/A   Mostly Cloudy
11:35 AM 42.8 °F - 26.6 °F 53% 30.19 in 10.0 mi Calm Calm - N/A   Scattered Clouds
11:55 AM 42.8 °F - 26.6 °F 53% 30.19 in 10.0 mi Calm Calm - N/A   Scattered Clouds
12:15 PM 44.6 °F - 26.6 °F 49% 30.18 in 10.0 mi Calm Calm - N/A   Scattered Clouds
12:35 PM 48.2 °F - 28.4 °F 46% 30.17 in 10.0 mi Calm Calm - N/A   Mostly Cloudy
12:55 PM 46.4 °F - 26.6 °F 46% 30.16 in 10.0 mi Calm Calm - N/A   Scattered Clouds
1:15 PM 48.2 °F - 26.6 °F 43% 30.15 in 10.0 mi Calm Calm - N/A   Clear
1:35 PM 48.2 °F - 26.6 °F 43% 30.14 in 10.0 mi North 3.5 mph - N/A   Clear
1:55 PM 50.0 °F - 28.4 °F 43% 30.13 in 10.0 mi Calm Calm - N/A   Clear
2:15 PM 50.0 °F - 26.6 °F 40% 30.13 in 10.0 mi North 3.5 mph - N/A   Clear
2:35 PM 50.0 °F - 26.6 °F 40% 30.12 in 10.0 mi Calm Calm - N/A   Clear
2:55 PM 48.2 °F - 26.6 °F 43% 30.12 in 10.0 mi Calm Calm - N/A   Clear
3:15 PM 48.2 °F - 26.6 °F 43% 30.11 in 10.0 mi North 3.5 mph - N/A   Clear
3:35 PM 46.4 °F 45.2 °F 26.6 °F 46% 30.11 in 10.0 mi ENE 3.5 mph - N/A   Clear
3:55 PM 46.4 °F 45.2 °F 26.6 °F 46% 30.11 in 10.0 mi ESE 3.5 mph - N/A   Clear
4:15 PM 46.4 °F - 26.6 °F 46% 30.11 in 10.0 mi Calm Calm - N/A   Clear
4:35 PM 46.4 °F 45.2 °F 26.6 °F 46% 30.11 in 10.0 mi East 3.5 mph - N/A   Clear
4:55 PM 46.4 °F - 26.6 °F 46% 30.11 in 10.0 mi Calm Calm - N/A   Clear
5:15 PM 42.8 °F - 28.4 °F 57% 30.11 in 10.0 mi Calm Calm - N/A   Clear
5:35 PM 41.0 °F - 28.4 °F 61% 30.11 in 10.0 mi Calm Calm - N/A   Clear
5:55 PM 37.4 °F - 28.4 °F 70% 30.12 in 10.0 mi Calm Calm - N/A   Clear
6:15 PM 37.4 °F - 28.4 °F 70% 30.12 in 10.0 mi Calm Calm - N/A   Clear
6:35 PM 35.6 °F - 26.6 °F 70% 30.13 in 10.0 mi Calm Calm - N/A   Clear
6:55 PM 33.8 °F - 28.4 °F 81% 30.14 in 10.0 mi Calm Calm - N/A   Clear
7:15 PM 35.6 °F - 26.6 °F 70% 30.14 in 10.0 mi Calm Calm - N/A   Clear
7:35 PM 35.6 °F - 28.4 °F 75% 30.14 in 10.0 mi Calm Calm - N/A   Clear
7:55 PM 35.6 °F - 28.4 °F 75% 30.14 in 10.0 mi Calm Calm - N/A   Clear
8:15 PM 35.6 °F - 28.4 °F 75% 30.14 in 10.0 mi Calm Calm - N/A   Clear
8:35 PM 33.8 °F 30.8 °F 28.4 °F 81% 30.14 in 10.0 mi NE 3.5 mph - N/A   Clear
8:55 PM 35.6 °F 31.7 °F 28.4 °F 75% 30.15 in 10.0 mi NE 4.6 mph - N/A   Clear
9:15 PM 33.8 °F - 28.4 °F 81% 30.16 in 10.0 mi Calm Calm - N/A   Clear
9:35 PM 32.0 °F - 28.4 °F 87% 30.16 in 10.0 mi Calm Calm - N/A   Clear
9:55 PM 32.0 °F - 26.6 °F 80% 30.15 in 10.0 mi Calm Calm - N/A   Clear
10:15 PM 32.0 °F - 26.6 °F 80% 30.16 in 10.0 mi Calm Calm - N/A   Clear
10:35 PM 30.2 °F - 26.6 °F 86% 30.16 in 10.0 mi Calm Calm - N/A   Clear
10:55 PM 30.2 °F - 26.6 °F 86% 30.14 in 10.0 mi Calm Calm - N/A   Clear
11:15 PM 30.2 °F - 26.6 °F 86% 30.13 in 10.0 mi Calm Calm - N/A   Clear
11:35 PM 30.2 °F - 28.4 °F 93% 30.13 in 10.0 mi Calm Calm - N/A   Clear
11:55 PM 32.0 °F - 28.4 °F 87% 30.12 in 10.0 mi Calm Calm - N/A   Clear